Location: Arrodets-la-Barthe
(43.0306°N, 0.2829°E)
Time: 18:24:16
(UTC+00:00)

NOSS 2-3 (D) - Pass Details

Date: 24 October 2021
Orbit: 538 x 1672 km, 63.3° (Epoch: 25 November)

Event Time Altitude Azimuth Distance (km) Brightness Sun altitude
Rises 18:07:36 0° 216° (SW) 2,678 7.5 -12.6°
Reaches altitude 10° 18:09:41 10° 217° (SW) 1,802 6.5 -13.0°
Maximum altitude 18:13:37 85° 305° (NW) 585 3.4 -13.7°
Drops below altitude 10° 18:18:09 10° 36° (NE) 2,075 5.9 -14.6°
Enters shadow 18:18:18 - 36° (NE) 2,134 6.0 -14.6°
